Simultaneous Nadir Overpasses (SNOs) Predictions

Prediction of SNOs between GOES-16 and METOP-B Satellite Orbit:

Table of predicted SNOs for the next 14.0 days since TLE Epoch: 2/21/2025
Index Date Time (GOES-16) GOES-16 Lat,Lon METOP-B Lat,Lon Distance(km) Time Diff (sec)
1 02/22/2025 13:56:05 0.01, -75.22 -0.81, -71.47 426.65 80
2 02/24/2025 02:17:50 -0.02, -75.18 -0.22, -76.11 105.29 80
3 02/25/2025 01:54:34 -0.02, -75.18 0.86, -71.13 461.55 80
4 02/26/2025 14:13:31 0.03, -75.23 0.15, -75.73 57.47 80
5 03/01/2025 02:14:40 -0.03, -75.21 -0.07, -75.40 20.70 80
6 03/03/2025 14:13:01 0.03, -75.28 -0.03, -75.03 28.68 80
7 03/06/2025 02:08:48 -0.02, -75.27 0.08, -74.68 66.69 80
8 03/07/2025 14:27:46 0.02, -75.33 0.90, -79.29 451.55 80
